Flag for Ukraine Weather past 2 weeks in Uzhgorod, Ukraine

36 °F

Drizzle. Fog.

Feels Like: 36 °F
Forecast: 32 / 39 °F
Wind: No wind

Location: Uzhhorod

Current Time: Nov 29, 2015 at 12:21:08 AM

Latest Report: Nov 28, 2015 at 10:00 PM

Visibility: 1 mi

Pressure: 29.89 "Hg

Humidity: 100%

Dew point: 36 °F

Location of UzhgorodLocation

Historic Weather in Uzhgorod — Graph


Uzhgorod temperature yesterday

Maximum temperature yesterday: 37 °F (at 1:00 PM)
Minimum temperature yesterday: 30 °F (at 5:00 AM)
Average temperature yesterday: 36 °F

Past Weeks' High & Low Weather Summary

High54 °F (Nov 14, 3:00 PM)100% (Nov 14, 10:00 AM)30.33 "Hg (Nov 14, 10:00 AM)
Low21 °F (Nov 25, 5:00 AM)44% (Nov 14, 3:00 PM)29.24 "Hg (Nov 21, 5:00 AM)
Average41 °F86%29.89 "Hg
* Reported Nov 13 10:00 PM — Nov 28 10:00 PM, Uzhgorod, Weather by CustomWeather, © 2015

Note: Actual official high and low records may vary slightly from our data, if they occured in-between our weather recording intervals... More about our weather records


Uzhgorod weather history for previous 24 hours

Time TempWeatherWind HumidityBarometerVisibility
10:00 PM
Sat, Nov 28
36 °FDrizzle. Fog.No wind100%29.89 "Hg1 mi
9:00 PM36 °FDrizzle. Fog.No wind100%29.86 "Hg2 mi
8:00 PM36 °FDrizzle. Fog.No wind100%29.86 "Hg1 mi
7:30 PM36 °FFog.No wind100%29.86 "Hg2 mi
7:00 PM36 °FFog.No wind100%29.83 "Hg2 mi
6:30 PM37 °FFog.No wind93%29.83 "Hg3 mi
6:00 PM37 °FFog.3 mph93%29.80 "Hg3 mi
5:30 PM37 °FLow clouds.1 mph93%29.80 "Hg4 mi
5:00 PM37 °FLight rain. Low clouds.1 mph93%29.80 "Hg4 mi
4:30 PM37 °FLight rain. Low clouds.1 mph100%29.80 "Hg4 mi
4:00 PM37 °FLight rain. Low clouds.1 mph100%29.77 "Hg4 mi
3:30 PM37 °FLight rain. Low clouds.1 mph93%29.77 "Hg4 mi
3:00 PM37 °FLight rain. Fog.3 mph93%29.77 "Hg2 mi
2:30 PM37 °FLight rain. Fog.6 mph93%29.77 "Hg2 mi
2:00 PM37 °FLight rain. Fog.3 mph93%29.77 "Hg2 mi
1:30 PM37 °FLight rain. Fog.3 mph93%29.77 "Hg2 mi
1:00 PM37 °FLight rain. Fog.No wind93%29.77 "Hg2 mi
12:30 PM36 °FLight rain. Fog.No wind100%29.74 "Hg1 mi
12:00 PM36 °FLight rain. Fog.No wind100%29.74 "Hg2 mi
11:30 AM34 °FLight rain. Fog.1 mph100%29.77 "Hg2 mi
11:00 AM34 °FLight rain. Fog.No wind100%29.77 "Hg2 mi
10:30 AM34 °FLight rain. Fog.No wind100%29.77 "Hg2 mi
10:00 AM34 °FLight rain. Fog.1 mph100%29.77 "Hg2 mi
8:00 AM34 °FLight rain. Overcast.No wind93%29.74 "HgN/A
7:00 AM34 °FLight rain. Overcast.3 mph93%29.74 "HgN/A
6:00 AM32 °FPartly cloudy.3 mph93%29.74 "HgN/A
5:00 AM30 °FPassing clouds.3 mph100%29.77 "HgN/A
Weather by CustomWeather, © 2015

See weather overviewHow to use our weather pages